{"data":{"norad_id":69144,"intl_designator":"2026-110W","name":"STARLINK-37638","alt_names":[],"object_type":"PAYLOAD","status":"ACTIVE","operator":null,"country":"US","launch_date":"2026-05-20","launch_site_code":"AFWTR","launch_vehicle":null,"mission":null,"orbit_class":"UNKNOWN","rcs_meters":null,"size_class":null,"mass_kg":null,"dimensions":null,"purposes":["comms"],"wikipedia_slug":null,"has_3d_model":false,"image_url":null,"decayed_at":null,"tle_current":{"epoch":"2026-09-18T02:39:29.185344Z","epoch_age_seconds":229628,"freshness":"STALE","line1":"1 69144U 26110W   26261.11075446  .00008552  00000+0  26697-3 0  9991","line2":"2 69144  97.2853  96.2614 0001704  94.0881 266.0556 15.33440707 19857","mean_motion":15.33440707,"eccentricity":0.0001704,"inclination_deg":97.2853,"raan_deg":96.2614,"arg_perigee_deg":94.0881,"mean_anomaly_deg":266.0556,"bstar":0.00026697,"rev_number":1985,"period_min":93.906467555384,"perigee_km":464.3897821773,"apogee_km":466.7221127338,"semimajor_km":6843.6929474555,"source":"CELESTRAK","updated_at":"2026-09-20T09:00:44.088330Z"}}}